Weather reports worldwide

Advertisment
Manschnow, Germany (10396): temperature & dewpoint: 13.12.2018 05:00:00 - 19.12.2018 05:00:00 (CET)Manschnow, Germany (10396): temperature 5cm & temperature -5cm: 13.12.2018 05:00:00 - 19.12.2018 05:00:00 (CET)Manschnow, Germany (10396): temperature -20cm & temperature -100cm: 13.12.2018 05:00:00 - 19.12.2018 05:00:00 (CET)Manschnow, Germany (10396): wind speed & gusts: 13.12.2018 05:00:00 - 19.12.2018 05:00:00 (CET)Manschnow, Germany (10396): wind direction: 13.12.2018 05:00:00 - 19.12.2018 05:00:00 (CET)Manschnow, Germany (10396): reduced air pressure: 13.12.2018 05:00:00 - 19.12.2018 05:00:00 (CET)Manschnow, Germany (10396): visibility: 13.12.2018 05:00:00 - 19.12.2018 05:00:00 (CET)Manschnow, Germany (10396): sunshine duration: 13.12.2018 05:00:00 - 19.12.2018 05:00:00 (CET)Manschnow, Germany (10396): precipitation: 13.12.2018 05:00:00 - 19.12.2018 05:00:00 (CET)
Date & Time tt [°C] td [°C] tt 5cm [°C] tt -5cm [°C] tt -20cm [°C] tt -100cm [°C] ff [km/h] ff [kn] fx [km/h] fx [kn] dd ppp [hPa] vv [km] sd [min] rr [mm]
19.12.2018 05:00:00 -0,8 -1,0 -0,9 0,5 1,8 6,7 11 6 19 11 E 1021,9 0,8 0 0,0
19.12.2018 04:00:00 -2,0 -2,5 -2,2 0,5 1,9 6,7 12 6 18 10 E 1022,5 0,4 0 0,0
19.12.2018 03:00:00 -1,5 -2,3 -2,3 0,5 1,9 6,7 12 6 16 9 E 1022,9 3,0 0 0,0
19.12.2018 02:00:00 0,0 -0,9 -1,6 0,6 2,0 6,7 10 5 16 9 ESE 1023,2 5 0 0,0
19.12.2018 01:00:00 0,3 -0,8 -1,1 0,6 2,0 6,7 12 7 18 10 SE 1023,5 5 0 0,0
19.12.2018 00:00:00 0,5 -0,4 -1,1 0,7 2,1 6,8 11 6 21 11 SE 1024,2 4,5 0 0,0
18.12.2018 23:00:00 1,0 0,2 -0,3 0,7 2,2 6,8 14 8 19 10 SE 1024,8 4,5 0 0,0
18.12.2018 22:00:00 1,0 0,4 -0,1 0,8 2,2 6,8 13 7 17 9 SE 1025,3 4,0 0 0,0
18.12.2018 21:00:00 1,0 0,6 -0,2 0,8 2,3 6,8 9 5 15 8 ESE 1025,5 3,0 0 0,0
18.12.2018 20:00:00 1,5 1,1 -0,1 0,9 2,4 6,8 9 5 12 6 ESE 1025,6 2,1 0 0,0
18.12.2018 19:00:00 1,3 0,9 -1,4 1,0 2,6 6,8 6 3 13 7 SSE 1026,0 0,4 0 0,0
18.12.2018 18:00:00 2,1 1,5 0,0 1,3 2,7 6,8 10 5 14 7 SE 1025,8 3,1 0 0,0
18.12.2018 17:00:00 2,3 1,8 0,9 2,3 2,7 6,8 9 5 11 6 SE 1025,7 2,3 0 0,0
18.12.2018 16:00:00 3,9 3,1 2,9 3,3 2,6 6,8 6 3 11 6 S 1025,9 4,1 0 0,0
18.12.2018 15:00:00 4,4 3,3 4,3 3,5 2,5 6,8 7 4 9 5 ESE 1025,6 5 0 0,0
18.12.2018 14:00:00 4,6 3,1 4,4 3,4 2,3 6,8 5 3 13 7 SSE 1025,7 7 0 0,0
18.12.2018 13:00:00 4,5 2,8 4,3 3,3 2,1 6,8 8 4 11 6 S 1026,0 8 0 0,0
18.12.2018 12:00:00 4,5 3,1 4,4 2,9 1,9 6,8 0 0 11 6 N 1026,3 6 0 0,0
18.12.2018 11:00:00 3,9 2,8 3,6 2,2 1,8 6,9 7 4 11 6 SSW 1026,4 7 0 0,0
18.12.2018 10:00:00 2,8 2,1 2,7 1,7 1,7 6,9 6 4 10 5 SSE 1026,6 3,2 0 0,0
18.12.2018 09:00:00 2,4 1,8 2,1 1,1 1,6 6,9 4 2 7 4 E 1026,3 3,0 0 0,0
18.12.2018 08:00:00 2,2 1,7 1,7 0,8 1,6 6,9 5 3 8 5 SE 1025,9 2,1 0 0,0
18.12.2018 07:00:00 1,7 1,1 1,4 0,6 1,6 6,9 6 3 10 5 SE 1025,6 2,8 0 0,0
18.12.2018 06:00:00 1,5 0,8 1,1 0,5 1,5 6,9 5 3 9 5 SE 1025,4 2,8 0 0,0
18.12.2018 05:00:00 1,4 0,5 1,0 0,5 1,5 6,9 6 4 8 4 SE 1025,4 4,0 0 0,0
18.12.2018 04:00:00 1,2 0,1 0,9 0,5 1,5 6,9 5 3 9 5 ESE 1025,5 4,5 0 0,0
18.12.2018 03:00:00 1,1 0,1 0,8 0,4 1,5 6,9 8 5 10 6 ESE 1025,3 4,5 0 0,0
18.12.2018 02:00:00 0,9 -0,1 0,4 0,4 1,5 6,9 6 4 8 5 SE 1025,0 4,4 0 0,0
18.12.2018 01:00:00 0,8 -0,2 0,5 0,4 1,5 6,9 4 2 9 5 E 1025,2 3,0 0 0,0
18.12.2018 00:00:00 0,8 -0,3 0,5 0,4 1,5 6,9 6 3 9 5 ENE 1025,4 3,1 0 0,0
17.12.2018 23:00:00 0,7 -0,3 0,4 0,4 1,5 7,0 6 3 9 5 E 1025,2 3,0 0 0,0
17.12.2018 22:00:00 0,7 -0,3 0,4 0,4 1,6 7,0 8 4 11 6 E 1025,1 3,3 0 0,0
17.12.2018 21:00:00 0,9 -0,5 0,5 0,4 1,6 7,0 4 2 9 5 E 1024,8 4,4 0 0,0
17.12.2018 20:00:00 0,7 -0,7 0,4 0,4 1,6 7,0 7 4 9 5 ESE 1024,4 4,2 0 0,0
17.12.2018 19:00:00 0,7 -0,8 0,4 0,4 1,6 7,0 6 4 9 5 ESE 1024,1 4,7 0 0,0
17.12.2018 18:00:00 0,6 -0,7 0,2 0,4 1,6 7,0 7 4 11 6 ESE 1023,5 4,5 0 0,0
17.12.2018 17:00:00 0,5 -1,0 0,0 0,4 1,6 7,0 5 3 8 5 SE 1023,0 3,9 0 0,0
17.12.2018 16:00:00 0,6 -1,0 0,2 0,4 1,6 7,0 5 3 7 4 SE 1022,5 4,6 0 0,0
17.12.2018 15:00:00 0,7 -1,1 0,5 0,4 1,6 7,0 4 2 9 5 ESE 1021,9 4,7 0 0,0
17.12.2018 14:00:00 0,7 -1,4 0,6 0,4 1,6 7,0 4 2 7 4 S 1021,6 7 0 0,0
17.12.2018 13:00:00 0,5 -1,9 0,4 0,4 1,6 7,0 4 2 9 5 S 1021,3 7 0 0,0
17.12.2018 12:00:00 0,4 -2,1 0,5 0,4 1,6 7,0 4 2 9 5 S 1021,0 8 0 0,0
17.12.2018 11:00:00 0,0 -2,5 0,2 0,4 1,6 7,1 6 4 9 5 SSW 1021,1 7 0 0,0
17.12.2018 10:00:00 -0,4 -2,6 -0,3 0,4 1,6 7,1 6 3 9 5 S 1020,5 7 0 0,0
17.12.2018 09:00:00 -1,0 -2,7 -1,1 0,4 1,6 7,1 5 3 9 5 SSE 1020,0 6 0 0,0
17.12.2018 08:00:00 -1,2 -2,8 -1,9 0,4 1,6 7,1 6 3 10 5 SSE 1019,3 6 0 0,0
17.12.2018 07:00:00 -1,1 -2,9 -1,6 0,4 1,6 7,1 7 4 11 6 ESE 1018,4 7 0 0,0
17.12.2018 06:00:00 -1,0 -2,8 -1,2 0,4 1,6 7,1 5 3 9 5 SE 1018,2 6 0 0,0
17.12.2018 05:00:00 -1,1 -2,8 -1,4 0,4 1,6 7,1 8 5 11 6 ESE 1017,6 7 0 0,0
17.12.2018 04:00:00 -1,2 -2,6 -1,3 0,4 1,6 7,1 8 4 11 6 ESE 1017,4 6 0 0,0
17.12.2018 03:00:00 -1,3 -2,7 -1,3 0,4 1,7 7,1 5 3 10 5 ESE 1017,2 6 0 0,0
17.12.2018 02:00:00 -1,5 -2,9 -1,6 0,4 1,7 7,1 7 4 14 8 SE 1017,0 6 0 0,0
17.12.2018 01:00:00 -1,6 -3,3 -1,7 0,4 1,7 7,1 9 5 13 7 SE 1016,7 6 0 0,1
17.12.2018 00:00:00 -1,3 -4,2 -1,4 0,4 1,7 7,1 9 5 14 8 SSE 1016,6 3,7 0 0,0
16.12.2018 23:00:00 -1,4 -4,5 -2,0 0,4 1,7 7,2 10 5 15 8 SE 1016,3 12 0 0,0
16.12.2018 22:00:00 -1,3 -4,8 -2,0 0,4 1,7 7,2 10 5 14 7 ESE 1016,1 13 0 0,0
16.12.2018 21:00:00 -1,0 -4,8 -1,5 0,4 1,7 7,2 9 5 19 11 SSE 1016,3 14 0 0,0
16.12.2018 20:00:00 -0,7 -4,8 -1,7 0,4 1,7 7,2 13 7 20 11 SSE 1016,2 14 0 0,0
16.12.2018 19:00:00 -0,3 -4,6 -0,7 0,4 1,7 7,2 11 6 18 10 SE 1016,0 16 0 0,0
16.12.2018 18:00:00 -0,3 -4,3 -0,6 0,4 1,7 7,2 13 7 19 10 SE 1015,8 14 0 0,0
16.12.2018 17:00:00 -0,1 -4,4 -0,5 0,5 1,7 7,2 14 8 21 12 SE 1015,9 15 0 0,0
16.12.2018 16:00:00 -0,1 -4,4 -0,4 0,5 1,7 7,2 15 8 24 13 SE 1016,0 13 0 0,0
16.12.2018 15:00:00 0,0 -4,1 -0,3 0,5 1,8 7,2 11 6 24 13 ESE 1015,8 13 0 0,0
16.12.2018 14:00:00 0,2 -4,4 -0,2 0,5 1,8 7,2 14 8 24 13 SE 1016,1 14 0 0,0
16.12.2018 13:00:00 -0,2 -2,4 -0,2 0,5 1,8 7,2 7 4 16 8 E 1016,8 6 0 0,0
16.12.2018 12:00:00 -0,6 -2,4 -0,6 0,5 1,8 7,3 10 5 16 9 E 1017,4 6 0 0,0
16.12.2018 11:00:00 -0,7 -2,6 -0,7 0,5 1,8 7,3 9 5 15 8 E 1018,5 6 0 0,0
16.12.2018 10:00:00 -0,7 -2,5 -0,8 0,5 1,8 7,3 10 5 16 8 E 1018,9 6 0 0,0
16.12.2018 09:00:00 -1,3 -2,8 -1,3 0,5 1,8 7,3 10 6 17 9 E 1019,0 5 0 0,0
16.12.2018 08:00:00 -1,5 -2,9 -1,6 0,5 1,8 7,3 10 5 16 9 E 1019,3 4,8 0 0,0
16.12.2018 07:00:00 -1,5 -3,0 -1,5 0,5 1,8 7,3 10 6 18 10 E 1019,9 4,5 0 0,0
16.12.2018 06:00:00 -1,2 -2,8 -1,3 0,5 1,9 7,3 9 5 19 11 E 1020,7 5 0 0,0
16.12.2018 05:00:00 -1,1 -2,5 -1,2 0,5 1,9 7,3 11 6 21 12 E 1021,2 4,6 0 0,0
16.12.2018 04:00:00 -0,7 -2,2 -0,9 0,5 1,9 7,3 13 7 22 12 E 1021,8 4,6 0 0,0
16.12.2018 03:00:00 -0,9 -2,1 -1,1 0,5 1,9 7,3 10 6 19 11 E 1022,8 4,3 0 0,0
16.12.2018 02:00:00 -0,5 -2,0 -0,8 0,5 1,9 7,3 10 6 19 10 E 1023,4 4,7 0 0,0
16.12.2018 01:00:00 -0,3 -1,7 -0,6 0,5 2,0 7,4 13 7 21 11 E 1023,9 4,7 0 0,0
16.12.2018 00:00:00 -0,2 -1,5 -0,5 0,5 2,0 7,4 12 7 19 10 E 1024,7 4,2 0 0,0
15.12.2018 23:00:00 -0,2 -1,4 -1,2 0,5 2,0 7,4 10 5 20 11 E 1025,3 3,9 0 0,0
15.12.2018 22:00:00 0,3 -1,0 0,1 0,7 2,1 7,4 12 6 19 10 E 1026,0 4,1 0 0,0
15.12.2018 21:00:00 0,1 -1,0 -0,2 0,7 2,1 7,4 8 4 12 6 E 1026,5 3,4 0 0,0
15.12.2018 20:00:00 0,2 -1,0 -0,1 0,9 2,1 7,4 5 3 8 4 ENE 1027,0 3,9 0 0,0
15.12.2018 19:00:00 0,3 -0,9 0,1 0,9 2,2 7,4 5 3 10 6 ENE 1027,6 4,0 0 0,0
15.12.2018 18:00:00 0,4 -0,9 -0,1 1,0 2,2 7,4 5 3 10 5 ENE 1028,1 4,2 0 0,0
15.12.2018 17:00:00 0,4 -1,0 0,1 1,2 2,2 7,4 5 3 9 5 NE 1028,3 4,1 0 0,0
15.12.2018 16:00:00 0,5 -1,2 0,2 1,3 2,2 7,4 5 3 9 5 ENE 1028,7 4,9 0 0,0
15.12.2018 15:00:00 0,6 -1,1 0,5 1,5 2,1 7,5 6 3 13 7 ENE 1028,7 4,8 0 0,0
15.12.2018 14:00:00 0,7 -1,1 0,7 1,6 2,0 7,5 7 4 13 7 ENE 1028,8 5 0 0,0
15.12.2018 13:00:00 0,7 -1,6 1,0 1,3 2,0 7,5 8 4 13 7 ENE 1029,1 7 0 0,0
15.12.2018 12:00:00 0,3 -1,8 0,3 0,8 2,0 7,5 9 5 14 7 E 1029,6 7 0 0,0
15.12.2018 11:00:00 0,2 -2,0 0,3 0,6 2,0 7,5 8 5 15 8 NE 1030,1 8 0 0,0
15.12.2018 10:00:00 0,0 -2,1 0,1 0,5 2,0 7,5 8 4 14 8 NE 1030,2 9 0 0,0
15.12.2018 09:00:00 -0,4 -2,4 -0,5 0,5 2,0 7,5 6 4 14 7 NE 1030,0 9 0 0,0
15.12.2018 08:00:00 -0,5 -2,4 -0,7 0,5 2,0 7,5 7 4 13 7 NNE 1029,9 8 0 0,0
15.12.2018 07:00:00 -0,4 -2,7 -0,7 0,5 2,0 7,5 8 4 13 7 NNE 1029,7 11 0 0,0
15.12.2018 06:00:00 -0,5 -3,0 -0,7 0,5 2,0 7,5 6 4 13 7 NE 1029,5 14 0 0,0
15.12.2018 05:00:00 -0,4 -3,1 -0,8 0,5 2,1 7,5 8 4 13 7 NE 1029,4 15 0 0,0
15.12.2018 04:00:00 -0,3 -3,4 -0,6 0,5 2,1 7,5 8 4 16 9 NE 1029,5 17 0 0,0
15.12.2018 03:00:00 -0,2 -3,6 -0,6 0,5 2,1 7,5 7 4 14 7 NE 1029,7 20 0 0,0
15.12.2018 02:00:00 -0,3 -4,0 -0,6 0,5 2,1 7,6 6 3 13 7 ENE 1029,7 20 0 0,0
15.12.2018 01:00:00 -0,3 -4,1 -0,6 0,6 2,2 7,6 5 3 13 7 E 1029,6 20 0 0,0
15.12.2018 00:00:00 -0,3 -3,9 -0,6 0,6 2,2 7,6 8 5 17 9 ENE 1029,4 15 0 0,0
14.12.2018 23:00:00 -0,2 -3,6 -0,5 0,6 2,2 7,6 10 5 20 11 ENE 1029,6 16 0 0,0
14.12.2018 22:00:00 -0,2 -3,5 -0,4 0,6 2,3 7,6 12 6 19 10 ENE 1029,6 15 0 0,0
14.12.2018 21:00:00 -0,2 -3,1 -0,4 0,6 2,3 7,6 10 6 25 13 ENE 1029,2 12 0 0,0
14.12.2018 20:00:00 -0,1 -2,3 -0,4 0,6 2,4 7,6 15 8 25 13 E 1028,7 8 0 0,0
14.12.2018 19:00:00 0,0 -2,2 -0,3 0,7 2,5 7,6 15 8 25 14 ENE 1028,4 8 0 0,0
14.12.2018 18:00:00 0,2 -2,0 -0,1 0,9 2,5 7,6 11 6 20 11 E 1028,4 7 0 0,0
14.12.2018 17:00:00 0,3 -1,6 0,0 1,1 2,6 7,6 8 5 16 8 ENE 1028,1 7 0 0,0
14.12.2018 16:00:00 0,6 -1,6 0,3 1,3 2,6 7,6 10 5 18 10 E 1027,8 7 0 0,0
14.12.2018 15:00:00 0,6 -1,6 0,4 1,6 2,6 7,6 10 5 16 9 ENE 1027,6 7 0 0,0
14.12.2018 14:00:00 0,5 -1,7 0,5 1,7 2,6 7,6 9 5 17 9 ENE 1027,3 8 0 0,0
14.12.2018 13:00:00 0,4 -1,6 0,5 1,8 2,5 7,7 9 5 20 11 ENE 1027,2 7 0 0,0
14.12.2018 12:00:00 0,3 -1,9 0,5 1,8 2,4 7,7 12 7 19 10 ENE 1027,0 9 0 0,0
14.12.2018 11:00:00 0,0 -2,2 0,3 1,4 2,4 7,7 13 7 20 11 E 1027,1 10 0 0,0
14.12.2018 10:00:00 -0,2 -2,6 -0,2 0,8 2,4 7,7 10 5 18 10 E 1027,0 14 0 0,0
14.12.2018 09:00:00 -0,3 -2,6 -0,5 0,5 2,5 7,7 11 6 20 11 E 1026,3 14 0 0,0
14.12.2018 08:00:00 -0,3 -2,8 -0,6 0,5 2,6 7,7 10 5 16 9 ENE 1026,0 16 0 0,0
14.12.2018 07:00:00 -0,3 -2,7 -0,6 0,6 2,6 7,7 9 5 16 9 ENE 1025,4 14 0 0,0
14.12.2018 06:00:00 -0,1 -2,1 -0,5 0,8 2,7 7,7 9 5 16 9 ENE 1025,3 11 0 0,0
14.12.2018 05:00:00 -0,1 -1,6 -0,4 0,9 2,8 7,7 7 4 13 7 ENE 1025,3 8 0 0,0
14.12.2018 04:00:00 0,0 -1,7 -0,3 1,0 2,9 7,7 7 4 11 6 ENE 1025,3 9 0 0,0
14.12.2018 03:00:00 0,2 -2,0 -0,1 1,1 2,9 7,7 7 4 12 7 ENE 1025,3 12 0 0,0
14.12.2018 02:00:00 0,2 -1,8 -0,1 1,2 3,0 7,7 8 4 13 7 E 1025,2 11 0 0,0
14.12.2018 01:00:00 0,4 -1,5 0,0 1,4 3,1 7,7 7 4 10 6 E 1024,9 10 0 0,0
14.12.2018 00:00:00 0,6 -1,0 0,3 1,6 3,1 7,7 5 3 7 4 ENE 1024,9 8 0 0,0
13.12.2018 23:00:00 0,9 -0,8 0,3 1,7 3,2 7,8 3 2 7 4 ENE 1024,6 8 0 0,0
13.12.2018 22:00:00 0,9 -0,2 0,5 1,8 3,2 7,8 5 3 9 5 ESE 1024,7 5 0 0,0
13.12.2018 21:00:00 1,3 -0,6 0,9 1,9 3,3 7,8 7 4 12 6 E 1024,4 9 0 0,0
13.12.2018 20:00:00 1,5 -0,3 1,0 2,0 3,4 7,8 4 2 10 5 ENE 1024,2 9 0 0,0
13.12.2018 19:00:00 1,6 -0,3 1,0 2,1 3,4 7,8 6 3 9 5 NE 1024,1 8 0 0,0
13.12.2018 18:00:00 1,7 -1,1 1,3 2,2 3,5 7,8 5 3 8 5 ENE 1024,0 18 0 0,0
13.12.2018 17:00:00 1,8 -1,3 1,1 2,4 3,5 7,8 4 2 8 4 ENE 1024,1 18 0 0,0
13.12.2018 16:00:00 2,0 -1,3 1,5 2,8 3,5 7,8 5 3 11 6 E 1024,1 26 0 0,0
13.12.2018 15:00:00 2,4 -1,2 2,2 3,1 3,4 7,8 8 4 12 7 SE 1023,9 23 0 0,0
13.12.2018 14:00:00 2,3 0,8 2,3 3,2 3,4 7,8 6 3 12 6 E 1024,0 8 0 0,0
13.12.2018 13:00:00 2,1 0,9 2,1 3,0 3,3 7,8 8 4 15 8 E 1024,2 7 0 0,0
13.12.2018 12:00:00 2,0 0,7 2,1 3,1 3,2 7,8 10 5 16 8 E 1024,5 7 0 0,0
13.12.2018 11:00:00 2,0 0,8 2,2 2,9 3,1 7,8 7 4 13 7 ENE 1024,8 7 0 0,0
13.12.2018 10:00:00 1,6 0,5 1,7 2,3 3,1 7,8 7 4 15 8 ENE 1025,0 7 0 0,0
13.12.2018 09:00:00 1,3 0,6 1,1 1,9 3,1 7,8 4 2 8 4 NE 1024,9 5 0 0,0
13.12.2018 08:00:00 1,0 0,4 0,7 1,7 3,1 7,8 3 2 5 3 N 1024,8 3,7 0 0,0
13.12.2018 07:00:00 1,2 0,5 0,5 1,7 3,1 7,8 0 0 7 4 N 1024,6 4,5 0 0,0
13.12.2018 06:00:00 1,3 0,5 0,9 1,8 3,1 7,9 3 2 9 5 NNE 1024,6 4,7 0 0,0
13.12.2018 05:00:00 1,2 0,4 0,6 1,8 3,1 7,9 4 2 8 4 NNW 1025,1 4,5 0 0,0

tt = temperature
td = dewpoint
tt 5cm = temperature 5cm
tt -5cm = temperature -5cm
tt -20cm = temperature -20cm
tt -100cm = temperature -100cm
ff = wind speed
fx = gusts
dd = wind direction
ppp = reduced air pressure
vv = visibility
sd = sunshine duration
rr = precipitation

Next stations